[[{"header":{"parameterUnit":"m.s-1","parameterCategory":2,"la1":30.2991,"la2":30.254,"lo1":-89.0895,"lo2":-89.0444,"dy":0.0017,"dx":0.0017,"nx":28,"ny":28,"refTime":"2025-12-30T03:00:00:Z","depth":"0","parameterNumber":2,"parameterNumberName":"U-component_of_CURRENTS"},"data":[0,0,0,0,0,0,0,0,0,0,0,0,0,0,0,0,0,0,0,0,0,0,0,0,0,0,0,0,0,0,0,0,0,0,0,0,0,0,0,0,0,0,0,0,0,0,0,0,0,0,0,0,0,0,0,0,0,0,0.261,0.2611,0,0.2631,0.2632,0.2632,0.2625,0.2625,0.2624,0.2624,0.2638,0.2638,0.2639,0,0,0,0,0,0,0,0,0,0,0,0,0,0.2587,0.2587,0.261,0.2611,0.2611,0.2631,0.2632,0.2632,0.2625,0.2625,0.2624,0.2624,0.2638,0.2638,0.2639,0,0,0,0,0,0,0,0,0,0,0,0,0,0.26,0.2587,0.261,0.2611,0.2612,0.2631,0.2632,0.2632,0.2625,0.2624,0.2624,0.2624,0.2637,0.2638,0.2639,0.2655,0,0,0.2642,0.2643,0,0,0,0,0,0,0,0,0.2599,0.26,0.2611,0.2611,0.2612,0.2626,0.2628,0.264,0.2625,0.2618,0.2624,0.2623,0.2635,0.2636,0.2639,0.2656,0.2656,0.2642,0.2643,0.2643,0.2644,0,0,0,0,0,0,0,0.2598,0.26,0.2617,0.2611,0.2612,0.2619,0.2619,0.2631,0.2628,0.2619,0.2619,0.2624,0.2635,0.2638,0.2639,0.2656,0.2642,0.2643,0.2644,0.2644,0.2705,0.2706,0,0,0,0,0,0,0.2598,0.2599,0.2616,0.2618,0.2606,0.2619,0.262,0.2621,0.2628,0.2629,0.2624,0.2623,0.2636,0.2638,0.264,0.268,0.2643,0.2644,0.2645,0.2704,0.2705,0.2706,0,0,0,0,0,0,0.2597,0.2599,0.2616,0.261,0.2613,0.262,0.2621,0.2622,0.2628,0.2632,0.2632,0.263,0.2636,0.2638,0.2655,0.268,0.2645,0.2646,0.2703,0.2704,0.2706,0.2747,0,0,0,0,0,0,0.2596,0.2599,0.26,0.261,0.2613,0.2628,0.2622,0.2622,0.2632,0.2631,0.2637,0.2638,0.2636,0.2654,0.2656,0.268,0.2647,0.2701,0.2703,0.2705,0.2745,0.275,0.2755,0,0,0,0,0,0.2595,0.2596,0.2599,0.2602,0.2614,0.2629,0.2631,0.2634,0.2633,0.2637,0.2644,0.2638,0.2667,0.2655,0.2658,0.2683,0.27,0.2703,0.2705,0.2743,0.2749,0.2755,0,0,0,0,0,0,0.2585,0.2596,0.26,0.2604,0.2617,0.2628,0.2633,0.2638,0.2648,0.2647,0.2649,0.2651,0.2676,0.2673,0.266,0.2706,0.2684,0.2687,0.2712,0.2718,0.2723,0.2717,0.2647,0,0,0,0,0,0.2585,0.2588,0.2603,0.2607,0.2614,0.2626,0.2633,0.2638,0.2648,0.2651,0.2657,0.2667,0.2688,0.2696,0.2707,0.2732,0.273,0.275,0.2755,0.2759,0.2757,0.2787,0.2795,0.2713,0.2713,0.2713,0,0,0.258,0.2589,0.259,0.2606,0.2614,0.2631,0.2628,0.2641,0.2658,0.2653,0.2672,0.2684,0.2699,0.2727,0.2738,0.2727,0.278,0.2762,0.2766,0.2761,0.2791,0.2799,0.2806,0.2715,0.2715,0.2714,0,0,0.2577,0.2583,0.2587,0.2602,0.2621,0.2634,0.2641,0.2657,0.2665,0.269,0.2696,0.2721,0.2742,0.2761,0.2775,0.2814,0.2807,0.282,0.2842,0.2872,0.2879,0.2885,0.2887,0.2893,0.2823,0.2823,0.2823,0,0.2573,0.2579,0.2591,0.2604,0.2618,0.2638,0.2652,0.267,0.2691,0.2709,0.2699,0.2754,0.2761,0.2812,0.2823,0.2827,0.2831,0.2819,0.2879,0.2885,0.2891,0.2891,0.2897,0.2825,0.2825,0.2824,0.2824,0,0.2574,0.2584,0.2589,0.2614,0.2633,0.2647,0.2678,0.27,0.2716,0.274,0.2786,0.28,0.2834,0.2846,0.2845,0.2896,0.2882,0.2883,0.2863,0.2901,0.2899,0.2904,0.2828,0.2827,0.2827,0.2826,0,0,0.2546,0.2582,0.2583,0.2596,0.2638,0.2651,0.2693,0.2736,0.277,0.2797,0.2837,0.2878,0.2891,0.2905,0.2916,0.2937,0.2976,0.2925,0.2925,0.2924,0.3025,0.2967,0.2967,0.2991,0.2992,0.2993,0.3005,0,0.2541,0.256,0.2586,0.2612,0.2625,0.2668,0.2706,0.2753,0.2795,0.284,0.2878,0.2916,0.2914,0.293,0.2959,0.2976,0.2993,0.2971,0.2989,0.2989,0.2932,0.2973,0.2858,0.2855,0.3011,0.3011,0.3012,0,0.2525,0.2544,0.2562,0.261,0.262,0.2645,0.2712,0.2752,0.2834,0.287,0.2929,0.2954,0.3003,0.2985,0.304,0.3027,0.3026,0.303,0.3031,0.2964,0.2942,0.2844,0.2859,0.2799,0.302,0.302,0.3019,0,0.2482,0.2523,0.2535,0.255,0.2612,0.2634,0.2674,0.2757,0.2804,0.2888,0.2929,0.2995,0.3026,0.305,0.3067,0.3056,0.3112,0.3099,0.3044,0.3038,0.2936,0.292,0.2892,0.3127,0.3127,0.3127,0.3127,0,0.2456,0.2465,0.2513,0.2519,0.2549,0.2603,0.2653,0.2712,0.2804,0.2855,0.2935,0.298,0.3045,0.3085,0.3085,0.3086,0.3133,0.3049,0.3045,0.2946,0.2931,0.2869,0.2852,0.3127,0.3127,0.3127,0.3127,0,0.2402,0.2432,0.245,0.2507,0.2525,0.2546,0.2634,0.2674,0.2771,0.284,0.2864,0.2984,0.3032,0.3082,0.3122,0.3105,0.3022,0.3091,0.2956,0.2935,0.2803,0.2792,0.267,0.2586,0.3021,0.302,0.3019,0,0.2374,0.2375,0.2427,0.2436,0.2458,0.2503,0.2533,0.2641,0.2688,0.2826,0.2846,0.2938,0.2986,0.3047,0.3034,0.3031,0.2965,0.2909,0.2864,0.2781,0.2768,0.2685,0.2617,0.2742,0.2739,0.2737,0.2734,0,0.2325,0.2341,0.2359,0.2377,0.2399,0.2435,0.2486,0.2523,0.2637,0.2699,0.2778,0.2833,0.2912,0.2877,0.2894,0.2876,0.2772,0.2852,0.2811,0.2582,0.2445,0.2366,0.2738,0.2711,0.2713,0.2715,0.2716,0.2717,0.2283,0.228,0.2297,0.2307,0.2327,0.2341,0.2338,0.2401,0.2455,0.2516,0.2638,0.267,0.2723,0.2739,0.2709,0.2595,0.2601,0.2507,0.2511,0.2441,0.2323,0.2629,0.2573,0.2574,0.2576,0.2577,0.2578,0,0.2216,0.2215,0.2224,0.2221,0.2199,0.2248,0.2276,0.2254,0.2253,0.2356,0.2409,0.2437,0.2418,0.2443,0.2385,0.2284,0.2185,0.2214,0.2081,0.2039,0.2352,0.2303,0.2132,0.2132,0.2132,0.2132,0.2132,0.2132,0.2181,0.2151,0.2149,0.2084,0.2078,0.2018,0.2009,0.1996,0.2037,0.2041,0.2054,0.2129,0.225,0.2261,0.2153,0.2088,0.1935,0.1831,0.1841,0.2088,0.2116,0.2142,0.2092,0.188,0.188,0.1431,0.1428,0.1425]},{"header":{"parameterUnit":"m.s-1","parameterCategory":2,"la1":30.2991,"la2":30.254,"lo1":-89.0895,"lo2":-89.0444,"dy":0.0017,"dx":0.0017,"nx":28,"ny":28,"refTime":"2025-12-30T03:00:00:Z","depth":"0","parameterNumber":3,"parameterNumberName":"V-component_of_CURRENTS"},"data":[0,0,0,0,0,0,0,0,0,0,0,0,0,0,0,0,0,0,0,0,0,0,0,0,0,0,0,0,0,0,0,0,0,0,0,0,0,0,0,0,0,0,0,0,0,0,0,0,0,0,0,0,0,0,0,0,0,0,-0.0011,-0.0011,0,-0.0055,-0.0055,-0.0056,-0.0094,-0.0094,-0.0095,-0.0095,-0.0169,-0.0171,-0.0173,0,0,0,0,0,0,0,0,0,0,0,0,0,-0.0,-0.0,-0.001,-0.0011,-0.0011,-0.0054,-0.0055,-0.0056,-0.0094,-0.0094,-0.0095,-0.0095,-0.0169,-0.0171,-0.0173,0,0,0,0,0,0,0,0,0,0,0,0,0,-0.0022,-0.0,-0.001,-0.0034,-0.0036,-0.0054,-0.0055,-0.0056,-0.0094,-0.0094,-0.0095,-0.0095,-0.0168,-0.0171,-0.0173,-0.0182,0,0,-0.0181,-0.0182,0,0,0,0,0,0,0,0,-0.0021,-0.0023,-0.003,-0.0032,-0.0035,-0.0068,-0.0079,-0.0099,-0.0094,-0.0074,-0.0095,-0.0095,-0.0137,-0.0142,-0.0152,-0.0185,-0.0188,-0.0181,-0.0183,-0.0184,-0.0185,0,0,0,0,0,0,0,-0.0019,-0.0021,-0.003,-0.003,-0.0034,-0.0056,-0.006,-0.0083,-0.0105,-0.0076,-0.0078,-0.008,-0.0139,-0.0149,-0.0154,-0.0189,-0.0181,-0.0184,-0.0185,-0.0186,-0.0222,-0.0221,0,0,0,0,0,0,-0.0007,-0.002,-0.0028,-0.0031,-0.0027,-0.0056,-0.006,-0.0058,-0.0104,-0.011,-0.008,-0.0082,-0.0144,-0.015,-0.0156,-0.0151,-0.0184,-0.0187,-0.0188,-0.0222,-0.0222,-0.0221,0,0,0,0,0,0,-0.0007,-0.0008,-0.0027,-0.0025,-0.0029,-0.0055,-0.0053,-0.0059,-0.0066,-0.0106,-0.0114,-0.0081,-0.0145,-0.0153,-0.0168,-0.0155,-0.0188,-0.019,-0.0223,-0.0222,-0.0221,-0.0151,0,0,0,0,0,0,-0.0007,-0.0007,-0.0002,-0.0024,-0.0028,-0.0027,-0.0053,-0.0059,-0.0066,-0.0069,-0.0109,-0.0117,-0.0146,-0.0164,-0.017,-0.0159,-0.0192,-0.0224,-0.0223,-0.0222,-0.0154,-0.0148,-0.0142,0,0,0,0,0,-0.0006,0.0008,-0.0001,-0.0002,-0.002,-0.0026,-0.003,-0.0052,-0.0065,-0.0062,-0.0089,-0.0116,-0.0161,-0.0165,-0.0173,-0.0162,-0.0224,-0.0223,-0.0222,-0.0157,-0.0149,-0.0142,0,0,0,0,0,0,0.0015,0.0005,-0.0006,0.0004,-0.0006,-0.0031,-0.003,-0.0045,-0.0064,-0.0069,-0.0108,-0.0117,-0.0128,-0.0153,-0.0156,-0.0169,-0.0197,-0.0197,-0.0145,-0.0138,-0.0132,-0.0111,-0.0194,0,0,0,0,0,0.0024,0.0031,0.0015,0.0023,0.002,-0.0005,-0.001,-0.0024,-0.0043,-0.0052,-0.008,-0.0108,-0.0129,-0.0138,-0.0164,-0.0168,-0.0191,-0.0167,-0.0161,-0.0155,-0.0144,-0.0162,-0.0157,-0.0216,-0.0216,-0.0216,0,0,0.0033,0.0029,0.0032,0.0028,0.0015,0.0024,-0.0009,-0.0011,-0.0005,-0.0058,-0.0059,-0.0091,-0.0126,-0.0133,-0.0139,-0.0151,-0.0151,-0.0154,-0.0149,-0.014,-0.016,-0.0154,-0.0149,-0.0215,-0.0215,-0.0216,0,0,0.0061,0.0053,0.0069,0.0067,0.0058,0.0046,0.0049,0.0029,0.0019,0.0013,-0.0022,-0.004,-0.0074,-0.0091,-0.0106,-0.0081,-0.0122,-0.0094,-0.0044,-0.0062,-0.0057,-0.0053,-0.0075,-0.0073,-0.0087,-0.0087,-0.0087,0,0.0073,0.0092,0.0073,0.009,0.0095,0.0062,0.0083,0.007,0.0048,0.0048,0.0022,-0.0017,-0.0052,-0.0051,-0.0045,-0.0067,-0.0087,-0.0067,-0.0053,-0.0049,-0.0047,-0.0071,-0.007,-0.0083,-0.0084,-0.0084,-0.0084,0,0.0114,0.0129,0.0139,0.0151,0.0154,0.0165,0.015,0.0146,0.0127,0.0116,0.0107,0.0059,0.0039,0.0023,-0.0006,0.0003,-0.0022,-0.0046,-0.0068,-0.0036,-0.0064,-0.0064,-0.0078,-0.0079,-0.008,-0.0081,0,0,0.0145,0.0165,0.017,0.0189,0.0188,0.0198,0.0208,0.0214,0.0233,0.0196,0.0213,0.017,0.0142,0.0125,0.0084,0.0068,0.0064,0.0026,0.0023,0.0009,0.0022,0.0001,-0.0003,0.0041,0.0042,0.0042,-0.0006,0,0.0184,0.0233,0.023,0.0276,0.03,0.0279,0.0297,0.0297,0.0287,0.0294,0.0245,0.024,0.0182,0.0172,0.0148,0.0086,0.0066,0.0079,-0.0011,-0.0014,-0.0033,-0.0002,0.0012,-0.0029,-0.0007,-0.0007,-0.0007,0,0.0228,0.0257,0.0309,0.0346,0.0356,0.0375,0.0402,0.0417,0.0413,0.0405,0.0388,0.0344,0.0313,0.0255,0.0174,0.0184,0.0113,0.006,0.0056,0.0014,-0.0036,-0.0058,-0.0031,-0.0141,-0.0008,-0.0008,-0.0008,0,0.0267,0.0314,0.0359,0.0371,0.0405,0.0422,0.0439,0.0451,0.0484,0.0478,0.0494,0.044,0.0417,0.0327,0.0205,0.0191,0.0112,0.0076,-0.001,-0.0013,-0.0029,-0.0033,-0.0112,0.0022,0.0022,0.0022,0.0023,0,0.0314,0.0351,0.0381,0.0408,0.047,0.0473,0.0539,0.0544,0.0573,0.0625,0.0558,0.0577,0.0435,0.0363,0.0243,0.012,0.0137,0.0009,-0.0021,-0.0005,-0.0007,-0.0127,-0.0204,0.0021,0.0021,0.0021,0.0022,0,0.0351,0.0367,0.0427,0.0472,0.049,0.0537,0.0607,0.0659,0.0671,0.0732,0.0731,0.0685,0.0593,0.0443,0.0295,0.0179,-0.0013,0.0002,0.0028,0.0002,-0.018,-0.0253,-0.0376,-0.042,-0.0092,-0.0093,-0.0093,0,0.0375,0.0408,0.0477,0.0521,0.0543,0.0612,0.0666,0.0704,0.0767,0.0803,0.084,0.0768,0.0738,0.0516,0.0294,0.0087,-0.0034,-0.0043,-0.0068,-0.0177,-0.0281,-0.0332,-0.0363,-0.0066,-0.0066,-0.0066,-0.0066,0,0.0424,0.0444,0.0494,0.0584,0.0647,0.0731,0.0808,0.0874,0.0922,0.0974,0.1023,0.0999,0.0783,0.0585,0.029,0.014,-0.0119,-0.0055,-0.0171,-0.0264,-0.0321,-0.0381,-0.0055,-0.0069,-0.0069,-0.0068,-0.0068,-0.0068,0.0459,0.0503,0.0566,0.0654,0.0731,0.0834,0.0915,0.1003,0.1109,0.1193,0.1161,0.1156,0.0853,0.0463,0.0245,-0.0138,-0.0151,-0.025,-0.0329,-0.0369,-0.0412,-0.0093,-0.014,-0.014,-0.014,-0.014,-0.014,0,0.0503,0.0552,0.0633,0.0736,0.0829,0.0863,0.1001,0.109,0.122,0.1287,0.1329,0.1174,0.0819,0.044,-0.0081,-0.035,-0.044,-0.0505,-0.057,-0.0588,-0.0301,-0.0299,-0.0378,-0.0378,-0.0378,-0.0378,-0.0378,-0.0378,0.0526,0.0603,0.0645,0.0795,0.0873,0.1006,0.1091,0.1218,0.1305,0.1393,0.1386,0.135,0.104,0.0133,-0.0467,-0.0603,-0.0786,-0.0847,-0.0936,-0.0743,-0.0725,-0.0707,-0.0722,-0.0888,-0.0889,-0.1163,-0.1167,-0.1169]}],[{"header":{"parameterUnit":"m.s-1","parameterCategory":2,"la1":30.2991,"la2":30.254,"lo1":-89.0895,"lo2":-89.0444,"dy":0.0017,"dx":0.0017,"nx":28,"ny":28,"refTime":"2025-12-30T03:00:00:Z","depth":"2","parameterNumber":2,"parameterNumberName":"U-component_of_CURRENTS"},"data":[0,0,0,0,0,0,0,0,0,0,0,0,0,0,0,0,0,0,0,0,0,0,0,0,0,0,0,0,0,0,0,0,0,0,0,0,0,0,0,0,0,0,0,0,0,0,0,0,0,0,0,0,0,0,0,0,0,0,0.2249,0.2249,0,0.2262,0.2262,0.2262,0.2255,0.2255,0.2255,0.2255,0.2265,0.2266,0.2266,0,0,0,0,0,0,0,0,0,0,0,0,0,0.2229,0.2229,0.2249,0.2249,0.225,0.2262,0.2262,0.2262,0.2255,0.2255,0.2255,0.2255,0.2265,0.2266,0.2266,0,0,0,0,0,0,0,0,0,0,0,0,0,0.2237,0.2229,0.2249,0.225,0.225,0.2262,0.2262,0.2262,0.2255,0.2255,0.2255,0.2255,0.2265,0.2266,0.2266,0.2274,0,0,0.2268,0.2268,0,0,0,0,0,0,0,0,0.2237,0.2237,0.2249,0.225,0.225,0.2259,0.2259,0.2267,0.2255,0.2251,0.2255,0.2255,0.2265,0.2265,0.2265,0.2275,0.2275,0.2268,0.2269,0.2269,0.2269,0,0,0,0,0,0,0,0.2236,0.2237,0.2252,0.225,0.225,0.2253,0.2254,0.226,0.2257,0.2251,0.2251,0.2257,0.2265,0.2264,0.2265,0.2275,0.2268,0.2269,0.2269,0.2269,0.2331,0.2332,0,0,0,0,0,0,0.2239,0.2236,0.2251,0.2252,0.2245,0.2254,0.2254,0.2254,0.2257,0.2258,0.2257,0.2256,0.2263,0.2264,0.2266,0.231,0.2269,0.2269,0.227,0.233,0.2331,0.2333,0,0,0,0,0,0,0.2238,0.224,0.2251,0.2247,0.2249,0.2255,0.2254,0.2255,0.2264,0.2262,0.2262,0.2267,0.2263,0.2265,0.2282,0.2309,0.227,0.227,0.2328,0.233,0.2332,0.2377,0,0,0,0,0,0,0.2237,0.2239,0.2244,0.2247,0.2249,0.2262,0.2255,0.2255,0.2268,0.2267,0.227,0.227,0.2263,0.2282,0.2283,0.2309,0.2271,0.2327,0.2329,0.2331,0.2374,0.238,0.2386,0,0,0,0,0,0.2236,0.2241,0.2244,0.2246,0.2254,0.2263,0.2264,0.2266,0.2269,0.2273,0.228,0.2271,0.2298,0.2283,0.2284,0.2311,0.2325,0.2328,0.2331,0.2371,0.2379,0.2385,0,0,0,0,0,0,0.2233,0.2241,0.2244,0.2251,0.226,0.2262,0.227,0.2274,0.2283,0.2287,0.2283,0.2284,0.2311,0.2306,0.2289,0.2337,0.2312,0.2315,0.2342,0.2349,0.2355,0.2353,0.2271,0,0,0,0,0,0.2237,0.2242,0.225,0.2257,0.2263,0.227,0.2276,0.228,0.2288,0.2291,0.2296,0.2306,0.2324,0.2331,0.234,0.2363,0.236,0.2383,0.2389,0.2394,0.2394,0.2423,0.2431,0.2342,0.2342,0.2342,0,0,0.2237,0.2244,0.2246,0.2258,0.2264,0.2277,0.2272,0.2286,0.2302,0.2292,0.2315,0.2326,0.2335,0.2362,0.2374,0.2361,0.2418,0.2398,0.2402,0.2399,0.2426,0.2435,0.2443,0.2344,0.2344,0.2343,0,0,0.224,0.2248,0.2253,0.2264,0.2281,0.2289,0.2297,0.2309,0.2318,0.2343,0.2346,0.2372,0.2391,0.2404,0.2414,0.2458,0.2449,0.2467,0.2494,0.2522,0.2529,0.2535,0.2539,0.2546,0.2469,0.2469,0.2469,0,0.2243,0.2249,0.2257,0.2269,0.2281,0.2297,0.231,0.2325,0.2343,0.2361,0.2357,0.2409,0.2413,0.2457,0.2471,0.2472,0.2478,0.2465,0.2529,0.2535,0.2541,0.2543,0.255,0.2472,0.2471,0.2471,0.2471,0,0.2247,0.2259,0.2265,0.2285,0.2301,0.2314,0.2338,0.2361,0.2382,0.2402,0.245,0.2461,0.2493,0.2504,0.25,0.255,0.2537,0.2533,0.2509,0.2553,0.2552,0.2558,0.2475,0.2474,0.2474,0.2473,0,0,0.2232,0.2261,0.2264,0.2275,0.231,0.2319,0.236,0.2397,0.2431,0.2461,0.2503,0.254,0.2556,0.2567,0.2574,0.2595,0.2637,0.2583,0.2583,0.2582,0.2687,0.2625,0.2625,0.2649,0.265,0.2651,0.2668,0,0.2232,0.2249,0.227,0.2294,0.2304,0.2342,0.2376,0.2419,0.246,0.2505,0.2541,0.2581,0.2579,0.2599,0.2625,0.2638,0.2656,0.2632,0.2648,0.2648,0.2585,0.2632,0.2432,0.2426,0.2674,0.2675,0.2675,0,0.2222,0.2237,0.2256,0.2296,0.2306,0.233,0.2392,0.2429,0.2506,0.2542,0.2601,0.2626,0.2676,0.2659,0.2709,0.2697,0.2696,0.2697,0.2698,0.2627,0.2598,0.2424,0.2427,0.2685,0.2684,0.2684,0.2683,0,0.2188,0.2224,0.2237,0.2249,0.2302,0.2327,0.2365,0.2441,0.2484,0.257,0.2612,0.2675,0.2709,0.2731,0.2744,0.2733,0.2783,0.2767,0.2708,0.2703,0.2528,0.2505,0.2796,0.2796,0.2796,0.2796,0.2796,0,0.2168,0.2178,0.2222,0.2228,0.2259,0.2307,0.2358,0.2414,0.2501,0.255,0.2628,0.267,0.2732,0.2767,0.2765,0.2759,0.2806,0.2718,0.2711,0.2537,0.2516,0.2735,0.2728,0.2797,0.2797,0.2797,0.2797,0,0.2125,0.2152,0.2169,0.2222,0.2241,0.2265,0.2348,0.2385,0.2481,0.2547,0.2576,0.2684,0.2729,0.277,0.2805,0.278,0.2778,0.2759,0.2542,0.2509,0.2669,0.2664,0.2693,0.2691,0.2689,0.2688,0.2687,0,0.2101,0.2105,0.2153,0.2163,0.2187,0.2233,0.2263,0.2364,0.2407,0.2539,0.2558,0.2647,0.2683,0.2729,0.2703,0.2691,0.2745,0.2488,0.243,0.2672,0.2662,0.2659,0.2657,0.2211,0.2206,0.2202,0.2199,0,0.206,0.2079,0.2094,0.2114,0.2138,0.2169,0.2221,0.2252,0.2361,0.2418,0.2487,0.2532,0.2593,0.2499,0.2504,0.247,0.2475,0.2405,0.2723,0.2274,0.2221,0.221,0.2223,0.2163,0.2166,0.2169,0.2171,0.2172,0.2027,0.2024,0.2041,0.2053,0.2076,0.2083,0.2078,0.2135,0.218,0.2231,0.2339,0.2331,0.2353,0.2262,0.2185,0.2126,0.2295,0.218,0.2191,0.2207,0.2154,0.2102,0.201,0.2012,0.2015,0.2017,0.2018,0,0.1969,0.1968,0.1975,0.1971,0.1952,0.2002,0.2023,0.1994,0.1987,0.2062,0.2099,0.1932,0.1878,0.1893,0.1751,0.1748,0.1725,0.1669,0.1613,0.1651,0.1685,0.1603,0.1314,0.1311,0.1309,0.1307,0,0,0.1937,0.1908,0.1903,0.1841,0.184,0.1783,0.1773,0.1748,0.1766,0.1727,0.1702,0.1836,0.1869,0.1574,0.1533,0.1395,0.1516,0.1346,0.1918,0.1894,0.1924,0.1994,0.1914,0,0,0,0,0]},{"header":{"parameterUnit":"m.s-1","parameterCategory":2,"la1":30.2991,"la2":30.254,"lo1":-89.0895,"lo2":-89.0444,"dy":0.0017,"dx":0.0017,"nx":28,"ny":28,"refTime":"2025-12-30T03:00:00:Z","depth":"2","parameterNumber":3,"parameterNumberName":"V-component_of_CURRENTS"},"data":[0,0,0,0,0,0,0,0,0,0,0,0,0,0,0,0,0,0,0,0,0,0,0,0,0,0,0,0,0,0,0,0,0,0,0,0,0,0,0,0,0,0,0,0,0,0,0,0,0,0,0,0,0,0,0,0,0,0,0.0185,0.0185,0,0.0157,0.0156,0.0156,0.013,0.013,0.0129,0.0129,0.0082,0.0081,0.008,0,0,0,0,0,0,0,0,0,0,0,0,0,0.0185,0.0185,0.0185,0.0185,0.0185,0.0157,0.0156,0.0156,0.013,0.013,0.0129,0.0129,0.0082,0.0081,0.008,0,0,0,0,0,0,0,0,0,0,0,0,0,0.0173,0.0186,0.0185,0.0169,0.0167,0.0157,0.0156,0.0156,0.013,0.013,0.0129,0.0129,0.0082,0.0081,0.0079,0.0076,0,0,0.0074,0.0074,0,0,0,0,0,0,0,0,0.0174,0.0173,0.0172,0.017,0.0168,0.0147,0.0139,0.0129,0.013,0.0143,0.0129,0.0129,0.0103,0.01,0.0094,0.0074,0.0072,0.0074,0.0073,0.0073,0.0072,0,0,0,0,0,0,0,0.0175,0.0174,0.0173,0.0171,0.0169,0.0153,0.0151,0.0137,0.0124,0.0142,0.014,0.0139,0.0102,0.0095,0.0092,0.0071,0.0074,0.0073,0.0072,0.0071,0.0047,0.0047,0,0,0,0,0,0,0.0182,0.0175,0.0174,0.0172,0.0171,0.0153,0.0151,0.0154,0.0124,0.012,0.0139,0.0138,0.0098,0.0094,0.0091,0.0095,0.0073,0.0071,0.007,0.0046,0.0047,0.0047,0,0,0,0,0,0,0.0183,0.0183,0.0175,0.0173,0.0171,0.0154,0.0157,0.0153,0.0148,0.0123,0.0118,0.0138,0.0098,0.0093,0.0083,0.0092,0.0071,0.0069,0.0046,0.0046,0.0047,0.0097,0,0,0,0,0,0,0.0183,0.0183,0.0187,0.0174,0.0172,0.0175,0.0157,0.0153,0.0148,0.0146,0.012,0.0115,0.0097,0.0085,0.0081,0.009,0.0068,0.0046,0.0046,0.0047,0.0095,0.0099,0.0103,0,0,0,0,0,0.0183,0.0194,0.0188,0.0188,0.0179,0.0176,0.0173,0.0158,0.0148,0.0151,0.0133,0.0116,0.0086,0.0085,0.008,0.0088,0.0045,0.0046,0.0047,0.0093,0.0098,0.0103,0,0,0,0,0,0,0.0195,0.0192,0.0185,0.0194,0.0187,0.0172,0.0172,0.0162,0.0149,0.0145,0.012,0.0115,0.0108,0.0091,0.009,0.0082,0.0062,0.0062,0.01,0.0104,0.0108,0.0124,0.0067,0,0,0,0,0,0.0201,0.0209,0.02,0.0206,0.0204,0.0188,0.0185,0.0175,0.0162,0.0156,0.0139,0.012,0.0107,0.0101,0.0084,0.0082,0.006,0.0083,0.0087,0.009,0.01,0.0075,0.0077,0.0049,0.0049,0.0049,0,0,0.0207,0.0206,0.021,0.0209,0.0201,0.021,0.0185,0.0183,0.019,0.0153,0.0155,0.0131,0.0108,0.0105,0.01,0.0093,0.0086,0.0091,0.0094,0.0102,0.0076,0.0078,0.0081,0.005,0.005,0.0049,0,0,0.0227,0.0222,0.0237,0.0237,0.0231,0.0224,0.0226,0.0213,0.0206,0.0203,0.0178,0.0163,0.0143,0.0131,0.0122,0.0137,0.0105,0.0129,0.0165,0.0141,0.0143,0.0145,0.0117,0.0116,0.0134,0.0134,0.0134,0,0.0235,0.0254,0.024,0.0255,0.0262,0.0235,0.0255,0.0245,0.023,0.0231,0.021,0.0182,0.0158,0.016,0.0163,0.0147,0.0126,0.0151,0.0146,0.0148,0.0148,0.012,0.0118,0.0136,0.0136,0.0136,0.0136,0,0.0268,0.0283,0.0291,0.0305,0.0309,0.0319,0.031,0.0306,0.0291,0.0284,0.0275,0.0238,0.0224,0.0211,0.0191,0.019,0.017,0.0152,0.0137,0.0154,0.0123,0.012,0.014,0.0139,0.0138,0.0138,0,0,0.029,0.0312,0.0316,0.0335,0.0338,0.0348,0.0357,0.0365,0.0381,0.0348,0.0361,0.0326,0.0302,0.029,0.0258,0.0236,0.0216,0.0201,0.0199,0.0179,0.0159,0.0139,0.0134,0.0196,0.0196,0.0196,0.0133,0,0.0322,0.0367,0.0367,0.041,0.0433,0.0418,0.0435,0.0435,0.0427,0.043,0.0385,0.0383,0.0335,0.0327,0.0297,0.0239,0.0212,0.0235,0.0141,0.0138,0.0123,0.0131,0.0147,0.0093,0.013,0.013,0.0129,0,0.0358,0.0387,0.0434,0.0473,0.0482,0.05,0.0527,0.0541,0.0534,0.0526,0.0507,0.0469,0.0434,0.0385,0.0296,0.0312,0.0243,0.0191,0.0186,0.0151,0.0114,0.0081,0.0086,0.0124,0.0125,0.0125,0.0125,0,0.039,0.0435,0.0478,0.0491,0.0526,0.0542,0.056,0.057,0.0599,0.0589,0.06,0.0544,0.052,0.0428,0.0313,0.0305,0.0207,0.0181,0.0097,0.0095,0.0083,0.0079,0.0117,0.0117,0.0117,0.0118,0.0118,0,0.043,0.0465,0.0497,0.0523,0.0582,0.0587,0.0647,0.0652,0.0675,0.0719,0.0655,0.0665,0.0529,0.0452,0.0338,0.0212,0.0224,0.0108,0.008,0.01,0.0099,0.0106,0.0106,0.0115,0.0116,0.0116,0.0117,0,0.0461,0.0478,0.0535,0.0581,0.0599,0.0643,0.0711,0.0757,0.0764,0.0814,0.0812,0.0758,0.0659,0.0513,0.0363,0.0255,0.0129,0.0079,0.0109,0.0086,0.0025,0.0028,-0.0016,-0.0018,-0.0019,-0.0019,-0.002,0,0.0482,0.0513,0.0581,0.0622,0.0645,0.0712,0.0763,0.0798,0.0854,0.0875,0.0904,0.0822,0.0781,0.0552,0.0344,0.0141,0.0118,0.0023,0.0011,0.0036,0.0013,0.0017,0.0021,0.0009,0.0009,0.0008,0.0008,0,0.0526,0.0544,0.0594,0.0679,0.074,0.0821,0.0893,0.0951,0.0993,0.103,0.1056,0.102,0.08,0.0599,0.0317,0.0182,0.0056,0.001,0.003,0.0044,0.0055,0.0035,0.0039,0.0005,0.0006,0.0006,0.0006,0.0006,0.0556,0.0598,0.0659,0.0743,0.0818,0.0913,0.0989,0.1064,0.1152,0.1205,0.1166,0.1112,0.0881,0.0522,0.028,0.0024,0.004,-0.0047,-0.0044,-0.0041,-0.0024,-0.0014,-0.0074,-0.0074,-0.0074,-0.0075,-0.0075,0,0.0596,0.0643,0.072,0.0818,0.0906,0.094,0.1067,0.114,0.1242,0.1268,0.1281,0.1058,0.0826,0.0553,0.0174,-0.0043,-0.0056,-0.0114,-0.008,-0.0075,-0.0072,-0.0055,-0.0115,-0.0115,-0.0116,-0.0117,0,0,0.0617,0.0691,0.073,0.0871,0.0944,0.1069,0.1145,0.1243,0.1294,0.1326,0.1286,0.1222,0.0894,0.0616,0.0317,0.0096,0.006,0.0053,0.0109,0.019,0.0196,-0.0008,0.0027,0,0,0,0,0]}],[{"header":{"parameterUnit":"m.s-1","parameterCategory":2,"la1":30.2991,"la2":30.254,"lo1":-89.0895,"lo2":-89.0444,"dy":0.0017,"dx":0.0017,"nx":28,"ny":28,"refTime":"2025-12-30T03:00:00:Z","depth":"4","parameterNumber":2,"parameterNumberName":"U-component_of_CURRENTS"},"data":[0,0,0,0,0,0,0,0,0,0,0,0,0,0,0,0,0,0,0,0,0,0,0,0,0,0,0,0,0,0,0,0,0,0,0,0,0,0,0,0,0,0,0,0,0,0,0,0,0,0,0,0,0,0,0,0,0,0,0.1405,0.1405,0,0.1427,0.1427,0.1428,0.145,0.1451,0.1452,0.1452,0.1472,0.1472,0.1472,0,0,0,0,0,0,0,0,0,0,0,0,0,0.1368,0.1368,0.1405,0.1405,0.1406,0.1427,0.1427,0.1428,0.145,0.1451,0.1452,0.1452,0.1472,0.1472,0.1472,0,0,0,0,0,0,0,0,0,0,0,0,0,0.1384,0.1368,0.1405,0.1422,0.1424,0.1427,0.1427,0.1428,0.145,0.1451,0.1452,0.1453,0.1472,0.1472,0.1472,0.1455,0,0,0.1472,0.1472,0,0,0,0,0,0,0,0,0.1383,0.1385,0.1419,0.1421,0.1423,0.1439,0.1422,0.1438,0.145,0.1437,0.1452,0.1453,0.1462,0.1463,0.1461,0.1456,0.1457,0.1472,0.1472,0.1472,0.1472,0,0,0,0,0,0,0,0.1382,0.1384,0.1411,0.1419,0.1422,0.1424,0.1427,0.1425,0.1442,0.1438,0.1441,0.1447,0.1463,0.1461,0.1462,0.1458,0.1472,0.1472,0.1472,0.1472,0.1531,0.1533,0,0,0,0,0,0,0.1384,0.1383,0.141,0.1412,0.1408,0.1424,0.1428,0.1431,0.1443,0.1446,0.1447,0.1448,0.1461,0.1462,0.1463,0.1522,0.1472,0.1472,0.1472,0.153,0.1531,0.1533,0,0,0,0,0,0,0.1383,0.1386,0.1409,0.14,0.1404,0.1424,0.1428,0.1431,0.146,0.1449,0.1452,0.1477,0.1462,0.1463,0.1489,0.152,0.1472,0.1472,0.1528,0.153,0.1532,0.159,0,0,0,0,0,0,0.1382,0.1386,0.1404,0.14,0.1405,0.1428,0.1427,0.1431,0.1463,0.1466,0.1475,0.1476,0.1462,0.149,0.1489,0.1519,0.1472,0.1526,0.1529,0.1532,0.1586,0.1594,0.16,0,0,0,0,0,0.1381,0.1394,0.1404,0.1409,0.1424,0.1429,0.1432,0.1447,0.1464,0.1476,0.149,0.1478,0.1508,0.1491,0.149,0.1521,0.1524,0.1528,0.1531,0.1583,0.1592,0.16,0,0,0,0,0,0,0.1389,0.1398,0.1409,0.1427,0.1438,0.1435,0.1455,0.1465,0.1486,0.1502,0.1492,0.1493,0.1529,0.1518,0.1499,0.1548,0.1517,0.152,0.1556,0.1565,0.1572,0.1579,0.1472,0,0,0,0,0,0.1399,0.1416,0.142,0.144,0.1449,0.146,0.1472,0.1482,0.1493,0.1505,0.1514,0.1527,0.1537,0.1547,0.1552,0.1574,0.1571,0.1597,0.1604,0.161,0.1617,0.1645,0.1655,0.1545,0.1545,0.1545,0,0,0.1409,0.1418,0.143,0.1444,0.1457,0.147,0.1469,0.1496,0.1515,0.1503,0.1544,0.1553,0.155,0.1578,0.1593,0.1576,0.164,0.1615,0.162,0.1623,0.165,0.166,0.167,0.1547,0.1547,0.1546,0,0,0.1425,0.1447,0.1462,0.1473,0.1499,0.1502,0.1518,0.1535,0.1555,0.1588,0.1588,0.1619,0.1635,0.1638,0.164,0.1691,0.1679,0.17,0.1741,0.1769,0.1778,0.1786,0.1794,0.1802,0.1703,0.1703,0.1703,0,0.1442,0.1455,0.1468,0.1483,0.1499,0.1521,0.1538,0.1556,0.1583,0.1607,0.1613,0.1663,0.1662,0.1693,0.1713,0.1708,0.1717,0.1705,0.1778,0.1786,0.1793,0.1799,0.1807,0.1706,0.1706,0.1706,0.1705,0,0.1453,0.1478,0.149,0.1516,0.1534,0.1556,0.1577,0.1612,0.1647,0.1665,0.1722,0.1729,0.1761,0.1767,0.1756,0.1809,0.1797,0.1783,0.1753,0.1807,0.181,0.1818,0.1711,0.171,0.1709,0.1708,0,0,0.1449,0.149,0.1498,0.1516,0.1555,0.1565,0.1613,0.165,0.1692,0.1735,0.1785,0.1816,0.184,0.1845,0.1843,0.1866,0.1922,0.1854,0.1854,0.1858,0.1979,0.1848,0.1844,0.1927,0.1929,0.1931,0.1959,0,0.1457,0.1486,0.1508,0.1546,0.156,0.1601,0.1639,0.1684,0.1731,0.1787,0.1821,0.1869,0.1862,0.1892,0.1917,0.1923,0.1946,0.1915,0.193,0.193,0.1804,0.1849,0.1936,0.1965,0.1967,0.1968,0.1969,0,0.1451,0.1473,0.1509,0.1559,0.1572,0.1606,0.1678,0.1716,0.1796,0.1839,0.1903,0.1931,0.1985,0.1969,0.2019,0.2004,0.2003,0.2,0.2001,0.1863,0.1813,0.1901,0.1982,0.1981,0.198,0.1979,0.1978,0,0.1418,0.147,0.1501,0.1517,0.1579,0.1619,0.1664,0.1743,0.1788,0.1884,0.1933,0.1997,0.2041,0.2062,0.2069,0.2057,0.2108,0.2084,0.1963,0.1953,0.2037,0.2028,0.2119,0.2119,0.2119,0.2119,0.2118,0,0.1393,0.1422,0.1496,0.151,0.1563,0.1615,0.1685,0.1744,0.1834,0.1884,0.1966,0.2005,0.2072,0.2105,0.2098,0.2052,0.2136,0.1976,0.1956,0.2059,0.2053,0.2041,0.2032,0.212,0.2119,0.2119,0.2119,0,0.1345,0.1394,0.1434,0.1515,0.1548,0.1589,0.1693,0.1734,0.1837,0.1906,0.1942,0.2039,0.2073,0.2111,0.214,0.2073,0.2048,0.201,0.2121,0.2106,0.1867,0.1861,0.1873,0.1868,0.1865,0.1862,0.1859,0,0.1317,0.1335,0.1431,0.1459,0.1503,0.1576,0.1619,0.1727,0.1767,0.1898,0.1913,0.2,0.2041,0.1979,0.203,0.2006,0.1979,0.1953,0.1905,0.1864,0.1844,0.1844,0.1842,0.1853,0.1852,0.1851,0.1851,0,0.1264,0.1316,0.135,0.141,0.1463,0.1509,0.158,0.1601,0.1711,0.1822,0.1835,0.1847,0.188,0.1889,0.189,0.1869,0.1962,0.1914,0.1921,0.1876,0.1841,0.1825,0.1827,0.1838,0.184,0.1841,0.1842,0,0.1232,0.1244,0.1299,0.1338,0.14,0.1412,0.1464,0.1496,0.155,0.1687,0.1686,0.1769,0.1859,0.1818,0.1817,0.179,0.1754,0.1684,0.1702,0.1717,0.1651,0.1583,0.1488,0,0,0,0,0,0.1186,0.1183,0.1215,0.1241,0.1297,0.1334,0.1417,0.1468,0.1576,0.1541,0.1608,0.1625,0.1624,0.1671,0.1609,0.1745,0.1764,0.1665,0.1694,0.1768,0.1782,0.1718,0,0,0,0,0,0,0.1151,0.1179,0.118,0.1152,0.1155,0.1199,0.125,0.1325,0.1311,0.1428,0.1437,0.1523,0.1549,0.1639,0.1577,0.1589,0.1571,0.1721,0.1716,0.176,0.1773,0.1785,0.1723,0,0,0,0,0]},{"header":{"parameterUnit":"m.s-1","parameterCategory":2,"la1":30.2991,"la2":30.254,"lo1":-89.0895,"lo2":-89.0444,"dy":0.0017,"dx":0.0017,"nx":28,"ny":28,"refTime":"2025-12-30T03:00:00:Z","depth":"4","parameterNumber":3,"parameterNumberName":"V-component_of_CURRENTS"},"data":[0,0,0,0,0,0,0,0,0,0,0,0,0,0,0,0,0,0,0,0,0,0,0,0,0,0,0,0,0,0,0,0,0,0,0,0,0,0,0,0,0,0,0,0,0,0,0,0,0,0,0,0,0,0,0,0,0,0,0.0225,0.0225,0,0.0217,0.0217,0.0217,0.0215,0.0216,0.0216,0.0216,0.021,0.0209,0.0209,0,0,0,0,0,0,0,0,0,0,0,0,0,0.0215,0.0215,0.0225,0.0225,0.0225,0.0218,0.0217,0.0217,0.0215,0.0216,0.0216,0.0216,0.021,0.0209,0.0209,0,0,0,0,0,0,0,0,0,0,0,0,0,0.0215,0.0216,0.0225,0.0223,0.0223,0.0218,0.0217,0.0217,0.0215,0.0216,0.0216,0.0216,0.021,0.0209,0.0209,0.0204,0,0,0.0208,0.0208,0,0,0,0,0,0,0,0,0.0215,0.0215,0.0223,0.0223,0.0223,0.0218,0.0212,0.0213,0.0215,0.0218,0.0216,0.0216,0.0213,0.0212,0.021,0.0204,0.0204,0.0208,0.0208,0.0208,0.0207,0,0,0,0,0,0,0,0.0215,0.0215,0.0221,0.0223,0.0223,0.0215,0.0216,0.0212,0.0214,0.0218,0.0218,0.0217,0.0212,0.021,0.021,0.0204,0.0208,0.0208,0.0207,0.0207,0.02,0.02,0,0,0,0,0,0,0.0217,0.0215,0.0222,0.0221,0.0219,0.0216,0.0216,0.0219,0.0214,0.0214,0.0217,0.0217,0.0211,0.021,0.0209,0.0218,0.0208,0.0207,0.0207,0.02,0.02,0.02,0,0,0,0,0,0,0.0217,0.0218,0.0222,0.0218,0.0218,0.0216,0.0219,0.0219,0.0222,0.0214,0.0214,0.0221,0.0211,0.021,0.0212,0.0218,0.0207,0.0207,0.02,0.02,0.02,0.0227,0,0,0,0,0,0,0.0217,0.0218,0.0223,0.0218,0.0218,0.0224,0.0219,0.0219,0.0221,0.0221,0.0217,0.0216,0.0211,0.0213,0.0212,0.0217,0.0206,0.02,0.02,0.02,0.0226,0.0228,0.0229,0,0,0,0,0,0.0217,0.0224,0.0224,0.0225,0.0225,0.0224,0.0224,0.0222,0.0221,0.0224,0.0222,0.0217,0.0212,0.0213,0.0211,0.0217,0.02,0.02,0.02,0.0225,0.0227,0.0229,0,0,0,0,0,0,0.0222,0.0225,0.0224,0.0232,0.023,0.0224,0.0227,0.0225,0.0225,0.0226,0.022,0.0219,0.0221,0.0214,0.0215,0.0214,0.0204,0.0204,0.0223,0.0225,0.0227,0.0235,0.0206,0,0,0,0,0,0.0225,0.0233,0.0231,0.0237,0.0237,0.0233,0.0233,0.0231,0.023,0.023,0.0227,0.0223,0.0219,0.022,0.0214,0.0216,0.0196,0.0217,0.0219,0.022,0.0225,0.0195,0.0194,0.0201,0.0201,0.0201,0,0,0.0229,0.0232,0.0236,0.0239,0.0237,0.0245,0.0233,0.0236,0.0244,0.0229,0.0239,0.0229,0.0221,0.0222,0.0223,0.0219,0.0207,0.022,0.0222,0.0226,0.0195,0.0194,0.0194,0.0201,0.0201,0.0201,0,0,0.0241,0.0242,0.0253,0.0255,0.0257,0.0255,0.0257,0.0254,0.0254,0.0259,0.025,0.0243,0.0242,0.0235,0.0231,0.0238,0.0217,0.0237,0.0254,0.0225,0.0224,0.0223,0.0195,0.0191,0.0239,0.0239,0.0239,0,0.0246,0.0262,0.0255,0.0267,0.0275,0.0262,0.0277,0.0274,0.0272,0.0276,0.0267,0.0258,0.0247,0.0248,0.025,0.0243,0.0223,0.0249,0.0227,0.0226,0.0225,0.0195,0.0191,0.024,0.024,0.024,0.024,0,0.0266,0.0281,0.0287,0.0301,0.0306,0.0315,0.0312,0.0314,0.0311,0.0309,0.0307,0.0286,0.0282,0.0273,0.0265,0.0255,0.0242,0.0232,0.0223,0.0226,0.0195,0.019,0.0242,0.0242,0.0241,0.0241,0,0,0.0277,0.0299,0.0302,0.032,0.0327,0.0336,0.0344,0.0352,0.0366,0.0348,0.0357,0.0338,0.0324,0.0318,0.0299,0.0272,0.024,0.0252,0.025,0.0226,0.0175,0.0166,0.0159,0.0226,0.0226,0.0225,0.0156,0,0.0298,0.0331,0.0335,0.037,0.0389,0.0384,0.0398,0.0402,0.0399,0.0402,0.0369,0.0372,0.0342,0.0341,0.0307,0.0262,0.0229,0.026,0.0174,0.0172,0.0165,0.0154,0.0223,0.0152,0.0151,0.015,0.015,0,0.0319,0.0343,0.0381,0.0416,0.0424,0.0442,0.0467,0.0479,0.0473,0.047,0.0454,0.0429,0.0394,0.0363,0.0278,0.03,0.0241,0.0196,0.0192,0.0173,0.0154,0.0149,0.014,0.0141,0.0141,0.0142,0.0143,0,0.0337,0.0376,0.0412,0.0423,0.0457,0.0474,0.0493,0.0502,0.0525,0.0515,0.0522,0.0472,0.0453,0.037,0.0277,0.0278,0.0173,0.0161,0.0094,0.0093,0.0111,0.0112,0.0093,0.0093,0.0093,0.0093,0.0093,0,0.0359,0.039,0.0426,0.0448,0.0499,0.0509,0.056,0.0565,0.0582,0.0612,0.0564,0.0562,0.0453,0.0381,0.0288,0.0177,0.0179,0.0095,0.0074,0.0123,0.0127,0.0107,0.0109,0.0091,0.0091,0.0092,0.0092,0,0.0374,0.0395,0.0444,0.049,0.051,0.0549,0.0613,0.0646,0.0654,0.0685,0.0684,0.063,0.0536,0.0417,0.0282,0.02,0.0089,0.0047,0.0109,0.0093,0.0025,0.0029,-0.0033,-0.0033,-0.0034,-0.0035,-0.0035,0,0.0384,0.041,0.0478,0.0516,0.0542,0.0604,0.0648,0.0681,0.0718,0.0726,0.0737,0.0663,0.0607,0.0411,0.0282,0.0097,0.0069,0.0007,0.0012,0.0026,0.0011,0.0017,0.0023,-0.0037,-0.0037,-0.0037,-0.0037,0,0.0405,0.043,0.0473,0.0551,0.0608,0.0676,0.0738,0.0769,0.0801,0.0807,0.0779,0.0678,0.057,0.0415,0.027,0.0138,0.0045,-0.0002,-0.0001,0.0003,0.002,0.0008,0.0014,-0.004,-0.004,-0.0039,-0.0039,0,0.0422,0.0455,0.0512,0.0582,0.0656,0.0723,0.0758,0.0795,0.0829,0.0828,0.0816,0.0698,0.0632,0.0436,0.0303,0.0171,0.0135,0.0087,0.0082,0.0084,0.0135,0.0175,0.0143,0,0,0,0,0,0.0436,0.0474,0.0538,0.0615,0.0689,0.0735,0.0806,0.0834,0.086,0.0845,0.0833,0.073,0.0536,0.0456,0.0322,0.0282,0.0109,0.0119,0.005,-0.0055,-0.0052,-0.0012,0,0,0,0,0,0,0.0445,0.0504,0.0536,0.0629,0.0685,0.0769,0.0818,0.0839,0.0832,0.0833,0.0735,0.0687,0.0502,0.0611,0.0316,0.0277,0.0211,0.0032,0.0029,-0.0057,-0.0054,-0.0051,-0.0009,0,0,0,0,0]}]]